Location: Preissac
(48.4072°N, 78.3618°W)
Time: 04:36:47
(UTC-04:00)

ISS - Visible Passes

Search period start: 11 May 2021 00:00
Search period end: 21 May 2021 00:00
Orbit: 418 x 421 km, 51.6° (Epoch: 11 May)

Date Brightness Start Highest point End Pass type
(mag) Time Alt. Az. Time Alt. Az. Time Alt. Az.
11 May -3.0 02:16:04 48° NNW 02:16:25 50° N 02:19:43 10° ENE visible
11 May -3.0 03:50:12 10° WNW 03:53:32 55° NNE 03:56:52 10° E visible
12 May -2.4 01:29:58 37° NE 01:29:58 37° NE 01:32:15 10° ENE visible
12 May -2.8 03:02:53 11° WNW 03:06:02 49° N 03:09:20 10° E visible
12 May -3.8 04:39:37 10° WNW 04:42:58 69° SSW 04:46:19 10° ESE visible
13 May -1.5 00:43:46 18° ENE 00:43:46 18° ENE 00:44:48 10° ENE visible
13 May -2.7 02:16:42 22° WNW 02:18:30 46° N 02:21:47 10° ENE visible
13 May -3.8 03:52:09 10° WNW 03:55:32 87° NNE 03:58:55 10° ESE visible
13 May -1.0 23:57:17 10° ENE 23:57:17 10° ENE 23:57:22 10° ENE visible
14 May -2.7 01:30:10 37° NW 01:30:59 46° N 01:34:16 10° ENE visible
14 May -3.4 03:04:42 10° WNW 03:08:05 67° NNE 03:11:28 10° E visible
14 May -3.0 04:41:43 10° W 04:44:45 32° SW 04:47:47 10° SSE visible
14 May -1.8 21:28:53 10° SSE 21:30:18 12° SE 21:31:44 10° ESE visible
14 May -3.8 23:03:14 10° SW 23:06:33 61° SSE 23:09:53 10° ENE visible
15 May -2.9 00:40:10 10° W 00:43:28 50° N 00:46:46 10° ENE visible
15 May -3.1 02:17:16 10° WNW 02:20:35 55° N 02:23:55 10° E visible
15 May -3.5 03:54:09 10° WNW 03:57:24 47° SSW 04:00:40 10° SE visible
15 May -3.4 22:16:00 10° SW 22:19:11 41° SSE 22:22:23 10° ENE visible
15 May -3.2 23:52:37 10° W 23:55:57 58° NNW 23:59:18 10° ENE visible
16 May -2.8 01:29:47 10° WNW 01:33:05 49° N 01:36:23 10° E visible
16 May -3.9 03:06:39 10° WNW 03:10:01 68° SSW 03:13:23 10° ESE visible
16 May -2.0 04:44:28 10° WSW 04:46:20 14° SW 04:48:12 10° S visible
16 May -2.8 21:28:56 10° SSW 21:31:51 28° SE 21:34:47 10° E visible
16 May -3.6 23:05:06 10° WSW 23:08:28 73° NNW 23:11:51 10° ENE visible
17 May -2.7 00:42:17 10° WNW 00:45:33 46° N 00:48:50 10° ENE visible
17 May -3.1 02:19:12 10° WNW 02:26:40 - ESE 02:21:41 46° WNW visible
17 May -2.1 04:00:14 18° S 04:00:14 18° S 04:01:43 10° SSE visible
17 May -3.8 22:17:39 10° WSW 22:21:00 86° SSE 22:24:23 10° ENE visible
17 May -2.7 23:54:44 10° W 23:58:01 46° N 00:01:18 10° ENE visible
18 May -3.1 01:31:45 10° WNW 01:34:30 52° NW 01:34:30 52° NW visible
18 May -3.7 21:30:16 10° SW 21:33:35 61° SSE 21:36:55 10° ENE visible
18 May -2.8 23:07:12 10° W 23:10:29 50° N 23:13:47 10° ENE visible
19 May -3.1 00:44:17 10° WNW 00:47:37 55° NNE 00:48:11 47° NE visible
19 May -3.1 22:19:38 10° W 22:22:59 58° NNW 22:26:19 10° ENE visible
19 May -2.8 23:56:49 10° WNW 00:00:06 49° N 00:02:03 21° ENE visible
20 May -1.8 01:33:41 10° WNW 01:34:58 21° WNW 01:34:58 21° WNW visible
20 May -3.5 21:32:07 10° WSW 21:35:29 72° NNW 21:38:51 10° ENE visible
20 May -2.7 23:09:18 10° WNW 23:12:34 46° N 23:15:51 10° ENE visible
